FW3683 Weather Reports


time (UTC)temp
C
wind
direction
speed
KPH
gust
KPH
rain 1hr
cm
rain 24hr
cm
rain mn
cm
humidity
%
barometer
mb
20260503200013 21 84 0.0 0.0 0.00 0.00 0.00 22 1022.0
20260503195514 21 110 0.0 0.0 0.00 0.00 0.00 23 1022.1
20260503195011 22 54 0.0 0.0 0.00 0.00 0.00 24 1022.2
20260503194510 21 347 0.0 0.0 0.00 0.00 0.00 25 1022.3
20260503194009 20 134 0.0 0.0 0.00 0.00 0.00 28 1022.4
20260503193510 20 179 0.0 0.0 0.00 0.00 0.00 29 1022.7
20260503193023 20 118 0.0 0.0 0.00 0.00 0.00 28 1022.7
20260503192506 20 300 0.0 0.0 0.00 0.00 0.00 30 1022.8
20260503192004 19 143 0.0 0.0 0.00 0.00 0.00 31 1022.8
20260503191504 19 103 0.0 0.0 0.00 0.00 0.00 29 1023.1
20260503191006 20 59 0.0 0.0 0.00 0.00 0.00 31 1023.1
20260503190605 19 87 0.0 0.0 0.00 0.00 0.00 31 1023.1
20260503190001 19 68 0.0 0.0 0.00 0.00 0.00 31 1023.2
20260503185502 19 169 0.0 0.0 0.00 0.00 0.00 32 1023.3
20260503185100 19 164 0.0 0.0 0.00 0.00 0.00 31 1023.3
20260503184608 19 120 0.0 0.0 0.00 0.00 0.00 33 1023.2
20260503184059 19 141 0.0 0.0 0.00 0.00 0.00 34 1023.3
20260503183558 19 125 0.0 0.0 0.00 0.00 0.00 33 1023.3
20260503183057 18 12 0.0 0.0 0.00 0.00 0.00 34 1023.4
20260503182559 18 337 0.0 0.0 0.00 0.00 0.00 32 1023.6
20260503182055 18 63 0.0 0.0 0.00 0.00 0.00 34 1023.7
20260503181556 18 45 0.0 0.0 0.00 0.00 0.00 33 1023.8
20260503181055 18 281 0.0 0.0 0.00 0.00 0.00 34 1023.7
20260503180553 18 15 0.0 0.0 0.00 0.00 0.00 35 1023.8
20260503180054 18 44 0.0 0.0 0.00 0.00 0.00 34 1023.8
20260503175553 18 2 0.0 0.0 0.00 0.00 0.00 35 1024.0
20260503175152 18 142 0.0 0.0 0.00 0.00 0.00 35 1024.0
20260503174605 18 254 0.0 0.0 0.00 0.00 0.00 38 1024.0
20260503174050 17 293 0.0 0.0 0.00 0.00 0.00 36 1024.1
20260503173549 17 170 0.0 0.0 0.00 0.00 0.00 37 1024.1
20260503173050 17 288 0.0 0.0 0.00 0.00 0.00 36 1024.2
20260503172549 17 317 0.0 0.0 0.00 0.00 0.00 37 1024.3
20260503172047 17 117 0.0 0.0 0.00 0.00 0.00 38 1024.5
20260503171547 17 48 0.0 0.0 0.00 0.00 0.00 39 1024.6
20260503171047 17 195 0.0 0.0 0.00 0.00 0.00 38 1024.7
20260503170546 17 303 0.0 0.0 0.00 0.00 0.00 37 1024.9
20260503150533 14 20 0.0 0.0 0.00 0.00 0.00 44 1026.0
20260503131020 10 346 0.0 0.0 0.00 0.00 0.00 77 1025.9
20260503130521 8 346 0.0 0.0 0.00 0.00 0.00 80 1025.8
20260503110512 0 5 0.0 0.0 0.00 0.00 0.00 95 1025.3
20260503081554 0 20 0.0 0.0 0.00 0.00 0.00 95 1023.2
20260503081051 0 19 0.0 0.0 0.00 0.00 0.00 95 1023.1
20260503080554 1 20 0.0 0.0 0.00 0.00 0.00 95 1023.2
20260503072548 1 16 0.0 0.0 0.00 0.00 0.00 94 1023.0
20260503072052 1 16 0.0 0.0 0.00 0.00 0.00 94 1022.9
20260503071547 1 16 0.0 0.0 0.00 0.00 0.00 94 1022.8
20260503071046 1 16 0.0 0.0 0.00 0.00 0.00 94 1022.8
20260503070546 1 16 0.0 0.0 0.00 0.00 0.00 94 1022.8
20260503055035 2 351 0.0 0.0 0.00 0.00 0.00 93 1022.2
20260503054536 2 351 0.0 0.0 0.00 0.00 0.00 93 1022.2
20260503054035 2 351 0.0 0.0 0.00 0.00 0.00 93 1022.4
20260503053535 2 351 0.0 0.0 0.00 0.00 0.00 93 1022.3
20260503052534 2 344 0.0 0.0 0.00 0.00 0.00 93 1022.3
20260503052035 2 344 0.0 0.0 0.00 0.00 0.00 93 1022.3
20260503051533 2 19 0.0 0.0 0.00 0.00 0.00 93 1022.2
20260503051032 2 19 0.0 0.0 0.00 0.00 0.00 93 1022.2
20260503050532 2 19 0.0 0.0 0.00 0.00 0.00 93 1022.1
20260503050032 2 19 0.0 0.0 0.00 0.00 0.00 93 1022.0
20260503045531 2 19 0.0 0.0 0.00 0.00 0.00 92 1022.0
20260503045031 3 19 0.0 0.0 0.00 0.00 0.00 92 1022.0
20260503044539 3 19 0.0 0.0 0.00 0.00 0.00 91 1022.0
20260503044028 3 19 0.0 0.0 0.00 0.00 0.00 91 1021.8
20260503043531 3 19 0.0 0.0 0.00 0.00 0.00 91 1021.9
20260503042530 3 19 0.0 0.0 0.00 0.00 0.00 91 1021.8
20260503042029 3 19 0.0 0.0 0.00 0.00 0.00 91 1021.8
20260503041528 3 19 0.0 0.0 0.00 0.00 0.00 90 1021.8
20260503041027 3 19 0.0 0.0 0.00 0.00 0.00 90 1021.5
20260503040526 3 19 0.0 0.0 0.00 0.00 0.00 90 1021.4
20260503040026 3 19 0.0 0.0 0.00 0.00 0.00 90 1021.4
20260503035526 3 19 0.0 0.0 0.00 0.00 0.00 89 1021.3
20260503035024 4 19 0.0 0.0 0.00 0.00 0.00 89 1021.2
20260503034524 4 18 0.0 0.0 0.00 0.00 0.00 89 1021.1
20260503034025 4 19 0.0 0.0 0.00 0.00 0.00 88 1021.0
20260503033524 4 19 0.0 0.0 0.00 0.00 0.00 88 1021.0
20260503032522 5 210 0.0 0.0 0.00 0.00 0.00 87 1020.9
20260503032021 5 210 0.0 0.0 0.00 0.00 0.00 87 1021.0
20260503031521 5 53 0.0 0.0 0.00 0.00 0.00 86 1020.9
20260503031020 5 56 0.0 0.0 0.00 0.00 0.00 86 1020.9
20260503030522 5 64 0.0 0.0 0.00 0.00 0.00 85 1020.8
20260503030018 5 64 0.0 0.0 0.00 0.00 0.00 85 1020.8
20260503025516 5 64 0.0 0.0 0.00 0.00 0.00 84 1020.8
20260503025015 5 64 0.0 0.0 0.00 0.00 0.00 83 1020.8
20260503024514 6 64 0.0 0.0 0.00 0.00 0.00 83 1020.7
20260503024013 6 64 0.0 0.0 0.00 0.00 0.00 82 1020.6
20260503023513 6 64 0.0 0.0 0.00 0.00 0.00 81 1020.6
20260503022507 6 13 0.0 0.0 0.00 0.00 0.00 79 1020.5
20260503022006 6 13 0.0 0.0 0.00 0.00 0.00 78 1020.4
20260503021506 6 338 0.0 0.0 0.00 0.00 0.00 78 1020.4
20260503021005 7 98 0.0 0.0 0.00 0.00 0.00 77 1020.4
20260503020504 7 98 0.0 0.0 0.00 0.00 0.00 77 1020.2
20260503020004 7 98 0.0 0.0 0.00 0.00 0.00 76 1020.1
20260503015503 7 98 0.0 0.0 0.00 0.00 0.00 76 1020.1
20260503015001 7 98 0.0 0.0 0.00 0.00 0.00 74 1020.1
20260503014620 8 84 0.0 0.0 0.00 0.00 0.00 73 1020.0
20260503014058 8 103 0.0 0.0 0.00 0.00 0.00 71 1020.0
20260503013557 8 103 0.0 0.0 0.00 0.00 0.00 71 1019.9
20260503012557 9 103 0.0 0.0 0.00 0.00 0.00 68 1019.7
20260503012054 10 103 0.0 0.0 0.00 0.00 0.00 66 1019.5
20260503011552 10 103 0.0 0.0 0.00 0.00 0.00 64 1019.4
20260503011052 10 22 0.0 0.0 0.00 0.00 0.00 61 1019.4
20260503010548 11 22 0.0 0.0 0.00 0.00 0.00 57 1019.3
20260503010047 12 233 0.0 0.0 0.00 0.00 0.00 53 1019.3
20260503005546 12 61 0.0 0.0 0.00 0.00 0.00 49 1019.0
20260503005045 12 320 0.0 0.0 0.00 0.00 0.00 45 1018.9
20260503004546 12 315 0.0 0.0 0.00 0.00 0.00 45 1019.0
20260503004046 13 274 0.0 0.0 0.00 0.00 0.00 44 1018.9
20260503003545 13 254 0.0 0.0 0.00 0.00 0.00 44 1018.8
20260503002546 13 236 0.0 0.0 0.00 0.00 0.00 43 1018.6
20260503002046 13 350 0.0 0.0 0.00 0.00 0.00 42 1018.5
20260503001605 13 319 0.0 0.0 0.00 0.00 0.00 41 1018.4
20260503001044 14 309 0.0 0.0 0.00 0.00 0.00 41 1018.3
20260503000544 14 321 0.0 0.0 0.00 0.00 0.00 40 1018.2
20260503000048 14 275 0.0 0.0 0.00 0.00 0.00 39 1018.2
20260502235544 15 252 0.0 0.0 0.00 0.00 0.00 40 1018.1
20260502235044 15 300 0.0 0.0 0.00 0.00 0.00 40 1017.9
20260502234549 15 297 0.0 0.0 0.00 0.00 0.00 40 1017.8
20260502234043 15 257 0.0 0.0 0.00 0.00 0.00 38 1017.8
20260502233544 15 304 0.0 0.0 0.00 0.00 0.00 38 1017.8
20260502232544 15 282 0.0 0.0 0.00 0.00 0.00 37 1017.6
20260502232044 16 319 0.0 0.0 0.00 0.00 0.00 37 1017.5
20260502231545 16 176 0.0 0.0 0.00 0.00 0.00 36 1017.4
20260502231044 16 269 0.0 0.0 0.00 0.00 0.00 37 1017.4
20260502230544 16 262 0.0 0.0 0.00 0.00 0.00 36 1017.2
20260502230043 16 306 0.0 0.0 0.00 0.00 0.00 36 1017.2
20260502225543 16 184 0.0 0.0 0.00 0.00 0.00 37 1017.2
20260502225043 16 153 0.0 0.0 0.00 0.00 0.00 38 1017.2
20260502224543 16 179 0.0 0.0 0.00 0.00 0.00 38 1017.2
20260502224045 16 257 0.0 0.0 0.00 0.00 0.00 39 1017.2
20260502223544 16 183 0.0 0.0 0.00 0.00 0.00 41 1017.1
20260502222542 16 359 0.0 0.0 0.00 0.00 0.00 40 1017.0
20260502222044 16 266 0.0 0.0 0.00 0.00 0.00 36 1016.9
20260502221545 16 345 0.0 0.0 0.00 0.00 0.00 37 1016.8
20260502221041 16 298 0.0 0.0 0.00 0.00 0.00 36 1016.8
20260502220541 16 191 0.0 0.0 0.00 0.00 0.00 36 1016.8
20260502220043 17 229 0.0 0.0 0.00 0.00 0.00 38 1016.7
20260502215542 17 268 0.0 0.0 0.00 0.00 0.00 35 1016.7
20260502215041 17 300 0.0 0.0 0.00 0.00 0.00 36 1016.6
20260502214548 17 261 0.0 0.0 0.00 0.00 0.00 38 1016.5
20260502214041 17 290 0.0 0.0 0.00 0.00 0.00 36 1016.3
20260502213541 17 309 0.0 0.0 0.00 0.00 0.00 35 1016.1
20260502212541 17 262 0.0 0.0 0.00 0.00 0.00 35 1016.0
20260502212040 18 229 0.0 0.0 0.00 0.00 0.00 33 1015.9
20260502211540 18 77 0.0 0.0 0.00 0.00 0.00 33 1015.9
20260502211039 18 219 0.0 0.0 0.00 0.00 0.00 33 1015.9
20260502210538 18 219 0.0 0.0 0.00 0.00 0.00 35 1016.0
20260502210043 17 140 0.0 0.0 0.00 0.00 0.00 34 1016.0
20260502205538 17 124 0.0 0.0 0.00 0.00 0.00 34 1016.0
20260502205041 17 103 0.0 0.0 0.00 0.00 0.00 36 1015.9
20260502204542 17 50 0.0 0.0 0.00 0.00 0.00 37 1015.8
20260502204037 17 147 0.0 0.0 0.00 0.00 0.00 35 1016.0
20260502203537 18 112 0.0 0.0 0.00 0.00 0.00 39 1016.1
20260502202535 18 203 0.0 0.0 0.00 0.00 0.00 36 1016.1
20260502202035 17 122 0.0 0.0 0.00 0.00 0.00 41 1016.1
20260502201537 17 115 0.0 0.0 0.00 0.00 0.00 38 1016.1
20260502201035 18 106 0.0 0.0 0.00 0.00 0.00 38 1016.3